Plymouth, MA

6:45 AM EST on February 28, 2017 (GMT -0500)
Plymouth Municipal

Weather History for KPYM - February, 2014

Change the Weather History Date:

Monday, February 3, 2014

  Actual Average Record
Temperature  
Mean Temperature 34 °F -  
Max Temperature 39 °F 41 °F 63 °F (1991)
Min Temperature 27 °F 21 °F -6 °F (1971)
Degree Days  
Heating Degree Days 32    
Moisture  
Dew Point 28 °F    
Average Humidity 83    
Maximum Humidity 89    
Minimum Humidity 65    
Precipitation  
Precipitation 0.19 in - - ()
Sea Level Pressure  
Sea Level Pressure 30.16 in    
Wind  
Wind Speed 9 mph (NNE)    
Max Wind Speed 17 mph    
Max Gust Speed 23 mph    
Visibility 4 miles    
Events Fog , Snow    
Averages and records for this station are not official NWS values.
T = Trace of Precipitation, MM = Missing Value Source: NWS Daily Summary

Daily Weather History Graph

Daily Weather History Graph

Search for Another Location

Airport or City:

Trip Planner

Search our weather history database for the weather conditions in past years. The results will help you decide how hot, cold, wet, or windy it might be!

Date:

Astronomy

Feb. 03, 2014 Rise Set
Actual Time 6:53 AM EST 5:00 PM EST
Civil Twilight 6:24 AM EST 5:30 PM EST
Nautical Twilight 5:50 AM EST 6:03 PM EST
Astronomical Twilight 5:18 AM EST 6:35 PM EST
Moon 8:49 AM EST (2/3) 9:53 PM EST (2/3)
Length of Visible Light 11h 05m
Length of Day
10h 07m
Waxing Crescent, 19% of the Moon is Illuminated
Feb 3
Waxing Crescent
Feb 6
First Quarter
Feb 14
Full
Feb 22
Last Quarter
Mar 1
New

Hourly Weather History & Observations

Time (EST) Temp. Windchill Dew Point Humidity Pressure Visibility Wind Dir Wind Speed Gust Speed Precip Events Conditions
12:52 AM 39.9 °F 35.8 °F 30.9 °F 70% 30.06 in 10.0 mi NW 5.8 mph - N/A   Overcast
1:52 AM 39.9 °F 35.1 °F 30.9 °F 70% 30.08 in 10.0 mi NNW 6.9 mph - N/A   Mostly Cloudy
2:52 AM 39.0 °F 34.8 °F 30.0 °F 70% 30.08 in 10.0 mi NNW 5.8 mph - N/A   Overcast
3:52 AM 39.0 °F 33.4 °F 28.9 °F 67% 30.10 in 10.0 mi NNW 8.1 mph - N/A   Overcast
4:52 AM 37.9 °F 32.7 °F 28.9 °F 70% 30.10 in 10.0 mi North 6.9 mph - N/A   Mostly Cloudy
5:52 AM 37.9 °F 30.5 °F 28.9 °F 70% 30.13 in 10.0 mi NNE 11.5 mph - N/A   Overcast
6:52 AM 37.0 °F 29.8 °F 26.1 °F 65% 30.15 in 10.0 mi North 10.4 mph - N/A   Overcast
7:43 AM 35.1 °F 26.9 °F 27.0 °F 72% 30.16 in 1.8 mi NNE 11.5 mph - 0.00 in Snow Light Snow
7:52 AM 35.1 °F 27.9 °F 28.0 °F 76% 30.17 in 1.5 mi NE 9.2 mph - 0.00 in Snow Light Snow
8:37 AM 33.1 °F 24.9 °F 28.9 °F 85% 30.17 in 0.8 mi NE 10.4 mph - 0.00 in Snow Light Snow
8:52 AM 33.1 °F 26.9 °F 28.9 °F 85% 30.17 in 0.8 mi NE 6.9 mph - 0.01 in Snow Light Snow
9:06 AM 33.1 °F 24.9 °F 28.9 °F 85% 30.16 in 1.2 mi NE 10.4 mph - 0.00 in Snow Light Snow
9:22 AM 33.1 °F 26.1 °F 28.9 °F 85% 30.17 in 0.8 mi ENE 8.1 mph - 0.00 in Snow Light Snow
9:37 AM 32.0 °F 26.4 °F 28.9 °F 88% 30.17 in 0.5 mi NE 5.8 mph - 0.01 in Fog , Snow Snow
9:52 AM 32.0 °F 24.8 °F 28.9 °F 88% 30.18 in 0.5 mi ENE 8.1 mph - 0.02 in Fog , Snow Snow
10:10 AM 32.0 °F 24.8 °F 28.9 °F 88% 30.18 in 0.5 mi NE 8.1 mph - 0.01 in Fog , Snow Snow
10:52 AM 32.0 °F 23.6 °F 28.9 °F 88% 30.20 in 0.5 mi NE 10.4 mph - 0.03 in Fog , Snow Snow
11:52 AM 32.0 °F 24.2 °F 28.9 °F 88% 30.17 in 0.5 mi NE 9.2 mph - 0.03 in Fog , Snow Snow
12:25 PM 32.0 °F 23.6 °F 28.9 °F 88% 30.15 in 0.5 mi NNE 10.4 mph - 0.02 in Fog , Snow Snow
12:38 PM 32.0 °F 22.5 °F 28.9 °F 88% 30.14 in 0.5 mi NNE 12.7 mph - 0.03 in Fog , Snow Snow
12:52 PM 32.0 °F 23.0 °F 28.9 °F 88% 30.15 in 0.5 mi NNE 11.5 mph - 0.04 in Fog , Snow Snow
1:02 PM 32.0 °F 23.0 °F 28.9 °F 88% 30.14 in 0.5 mi NNE 11.5 mph - 0.00 in Fog , Snow Snow
1:52 PM 32.0 °F 23.6 °F 28.9 °F 88% 30.13 in 0.5 mi NE 10.4 mph - 0.02 in Fog , Snow Snow
2:43 PM 32.0 °F 22.1 °F 28.9 °F 88% 30.11 in 0.5 mi NE 13.8 mph 21.9 mph 0.01 in Fog , Snow Snow
2:52 PM 32.0 °F 23.0 °F 28.9 °F 88% 30.13 in 0.5 mi NE 11.5 mph - 0.02 in Fog , Snow Snow
3:38 PM 32.0 °F 24.2 °F 28.0 °F 85% 30.14 in 0.5 mi NE 9.2 mph - 0.01 in Fog , Snow Light Snow
3:52 PM 32.0 °F 22.1 °F 28.0 °F 85% 30.14 in 0.8 mi NNE 13.8 mph - 0.02 in Snow Light Snow
4:03 PM 30.9 °F 19.4 °F 28.0 °F 89% 30.13 in 1.0 mi NNE 17.3 mph - 0.00 in Snow Light Snow
4:23 PM 30.9 °F 21.7 °F 28.0 °F 89% 30.14 in 0.8 mi NNE 11.5 mph - 0.00 in Snow Light Snow
4:52 PM 30.9 °F 20.2 °F 28.0 °F 89% 30.15 in 0.5 mi NNE 15.0 mph 23.0 mph 0.00 in Fog , Snow Snow
5:20 PM 30.9 °F 20.2 °F 28.0 °F 89% 30.15 in 1.5 mi NNE 15.0 mph - 0.00 in Snow Light Snow
5:40 PM 30.9 °F 21.2 °F 28.0 °F 89% 30.15 in 2.5 mi NNE 12.7 mph - 0.00 in Snow Light Snow
5:52 PM 30.9 °F 21.2 °F 28.0 °F 89% 30.16 in 3.0 mi NNE 12.7 mph - 0.00 in Snow Light Snow
6:52 PM 30.9 °F 22.2 °F 27.0 °F 85% 30.17 in 3.0 mi NNE 10.4 mph - 0.00 in Snow Light Snow
7:52 PM 30.9 °F 22.2 °F 27.0 °F 85% 30.19 in 5.0 mi North 10.4 mph - 0.00 in Snow Light Snow
8:52 PM 30.9 °F 22.2 °F 27.0 °F 85% 30.21 in 3.0 mi North 10.4 mph - 0.00 in Snow Light Snow
9:11 PM 30.9 °F 22.8 °F 27.0 °F 85% 30.22 in 2.5 mi North 9.2 mph - 0.00 in Snow Light Snow
9:20 PM 30.9 °F 22.8 °F 27.0 °F 85% 30.22 in 4.0 mi North 9.2 mph - 0.00 in Snow Light Snow
9:52 PM 30.9 °F 23.5 °F 27.0 °F 85% 30.23 in 9.0 mi North 8.1 mph - 0.00 in   Overcast
10:00 PM 30.9 °F 23.5 °F 27.0 °F 85% 30.23 in 10.0 mi North 8.1 mph - N/A   Overcast
10:52 PM 30.0 °F 24.1 °F 26.1 °F 85% 30.25 in 10.0 mi NNW 5.8 mph - N/A   Overcast
11:16 PM 28.9 °F 20.4 °F 25.0 °F 85% 30.26 in 10.0 mi NNW 9.2 mph - N/A   Mostly Cloudy
11:52 PM 27.0 °F 20.5 °F 24.1 °F 89% 30.28 in 10.0 mi NNW 5.8 mph - N/A   Partly Cloudy